Погода в Каргасоке

Погода в Каргасоке : погода сейчас, прогноз погоды и архив. Всё, что Вы хотите узнать о погоде в Каргасоке!

Хотите узнать прогноз погоды в Каргасоке? Тогда Вам сюда: Погода в Каргасоке

Поиск расширенной информации на нашем сайте:

Полезная информация: Варикозно расширенные вены.

Другие новости

Новости СМИ2

Главная страница сайта

Новости сайта

02.10.2013

Напоминаем, что на нашем новом сайте вы можете получить высокодетализированные прогнозы погоды по пунктам России, СНГ и мира (включающие важные для авиации метеовеличины, такие как направление и скорость ветра, видимость, явления погоды, количество и форма облачности, нижняя и верхняя граница облачности), а также ознакомиться с разнообразными материалами по авиационной метеорологии и подборкой полезных ссылок на эту тему.

Сайт Метеоцентр.Азия посвящён разработке технологий оптимизации авиаметеорологического обслуживания, включая проектирование и перспективное создание нескольких автоматизированных авиаметеорологических систем:
- система выпуска высокодетальных прогностических карт явлений погоды для нижнего воздушного пространства по России и ближнему зарубежью;
- система верификации прогнозов TAF (выпускаемых синоптиками официальных АМСГ РФ и ближнего зарубежья) и AUTOTAF (выпускаемых сайтом Метеоцентр.Азия) - выявление ошибок, онлайн-сопоставление с фактической погодой METAR, автоматическое внесение коррективов в прогнозы при резком отклонении фактической погоды от прогноза, подсчёт оправдываемости прогнозов по элементам и в целом;
- система обработки, анализа и отображения авиаметеорологической информации для применения провайдерами метеорологической информации.

Рекомендуем: Вытянуть вмятину без покраски как убрать вмятину без покраски.

Погода в Каргасоке - сегодня

Время (UTC), дата Ветер
(°,м/с) 
Видим.   Явления Облачность Т
(°С)
Тd
(°С)
f(%) Тe
(°С)
Pmin
(гПа)
dP
(гПа)
Po
(мм)
O2
(г/м3)
Тmin Tmax R s Состояние
почвы
06 21.06.17 240 (ЮЗ) 20000 м    9/3 1000 м средняя, верхняя 
[Sc|Ac trans|Ci sp]
+24.3 +11.4 44 +27  1000.9  0.2  746  274           
09 21.06.17 190 (Ю) 20000 м    8/1 1000 м средняя, верхняя 
[Cu med, cong|Ac trans|Ci sp]
+24.3 +10.7 42 +27  1000.5  -0.4  746  274           
12 21.06.17 180 (Ю) 20000 м    8/3 1000 м средняя, верхняя 
[Cu med, cong|Ac trans|Ci sp]
+24.7 +11.9 45 +29  1000.2  -0.3  745  273    +25.7       
15 21.06.17 240 (ЮЗ) 2{10}  20000 м    8/0 средняя, верхняя 
[Ac lent|Ci sp]
+20 +9.1 49 +20  1000.5  0.2  745  278           
18 21.06.17 200 (Ю) 20000 м    8/0 средняя, верхняя 
[Ac trans|Ci sp]
+15.8 +10.9 73 +19  1001.4  0.8  746  282           
21 21.06.17 230 (ЮЗ) 20000 м    8/0 средняя, верхняя 
[Ac trans|Ci sp]
+13.3 +10.5 83 +17  1002.4  0.9  747  285           
00 22.06.17 210 (ЮЗ) 20000 м    3/0 верхняя 
[Cc]
+16.1 +12.2 78 +21  1002.9  0.5  747  282  +12.5        сухая 
03 22.06.17 110 (В) 20000 м    3/0 верхняя 
[Ci sp]
+22.9 +13.1 54 +29  1003.5  0.8  748  275           
06 22.06.17 100 (В) 20000 м    8/0 средняя 
[Ac trans]
+24.4 +13.3 50 +30  1003.6  0.2  748  274           
09 22.06.17 080 (В) 2{15}  20000 м  гроза без осадков{ливн. осадки}  9/3 600 м кучево-дожд., средняя, верхняя 
[Cb cap|Ac cast|Ci sp]
+20.8 +16.2 75 +32  1004.2  0.5  748  277           
12 22.06.17 130 (ЮВ) 20000 м  {гроза, ливн. осадки}  8/0 средняя, верхняя 
[Ac trans|Ci ing]
+23.4 +14.4 57 +31  1003.2  -1  747  274    +25.7     
15 22.06.17 тихо ()   20000 м    9/1 1000 м средняя, верхняя 
[Cu med, cong|Ac trans|Ci sp]
+19.1 +15.7 81 +29  1003.8  0.5  748  278           
18 22.06.17 150 (ЮВ) 20000 м    8/0 средняя, верхняя 
[Ac trans|Ci sp]
+17.6 +16.3 92 +30  1005  1.2  749  280           
21 22.06.17 190 (Ю) 20000 м    6/0 средняя, верхняя 
[Ac trans|Ci sp]
+14.2 +12.9 92 +20  1005.5  0.4  749  284           
00 23.06.17 210 (ЮЗ) 20000 м    8/0 средняя, верхняя 
[Ac trans|Ci sp]
+16.4 +14.4 88 +26  1005.9  0.5  749  282  +13.7        влажная 
03 23.06.17 тихо ()   20000 м    3/0 верхняя 
[Ci sp]
+22 +14.7 63 +30  1006.1  0.3  750  277           
06 23.06.17 320 (СЗ) 20000 м    3/3 1000 м 
[Cu hum]
+24.4 +13.6 51 +31  1006.4  0.4  750  275           
09 23.06.17 360 (С) 20000 м    3/3 1000 м 
[Cu med, cong]
+26.8 +11.9 40 +31  1006.4  750  273           
12 23.06.17 230 (ЮЗ) 20000 м    1/1 1500 м 
[Cu hum]
+28 +11.9 37 +32  1006.5  0.1  750  272    +28       
15 23.06.17 020 (С) 20000 м    ясно 
+22.8 +17.3 71 +36  1006.9  0.3  750  275           
18 23.06.17 180 (Ю) 20000 м  местами туман поземный  ясно 
+15.8 +14.2 90 +24  1007.5  0.4  751  283           
21 23.06.17 190 (Ю) 20000 м  местами туман поземный  ясно 
+13.9 +12.5 91 +20  1007.7  0.2  751  285           
00 24.06.17 тихо ()   20000 м    ясно 
+21.6 +15.9 70 +32  1007.4  -0.2  751  277  +13.6        сухая 
03 24.06.17 090 (В) 20000 м    3/0 верхняя 
[Ci sp]
+25.4 +15.8 55 +35  1007.1  -0.2  750  273           
06 24.06.17 130 (ЮВ) 20000 м    5/3 1000 м верхняя 
[Cu med, cong|Ci sp]
+27.4 +13.2 42 +33  1006.3  -0.7  750  272           
Время (UTC), дата Ветер
(°,м/с) 
Видим.   Явления Облачность Т
(°С)
Тd
(°С)
f(%) Тe
(°С)
Pmin
(гПа)
dP
(гПа)
Po
(мм)
O2
(г/м3)
Тmin Tmax R s Состояние
почвы

Для получения пояснительной информации подведите курсор к названию столбца.

ПОГОДА в Каргасоке - архив

Всё, что Вы хотите узнать о погоде в Каргасоке - удобно и подробно!

Выберите нужную дату (начиная с 1 января 2015* года) и нажмите кнопку "Найти".
Будут отображены архивные сводки погоды по пункту Каргасок, начиная с указанной даты.


Отображать данные в формате CSV (для использования в таблицах Excel)


Внимание! Наш архив погоды предназначен исключительно для личного некоммерческого использования в познавательных целях. Если Вам необходимы официальные справки о состоянии погоды (для производственных, юридических, коммерческих и т.п. целей), обращайтесь в органы Росгидромета.

*Примечание: данная дата относится к архиву по метеостанциям СССР (Россия, СНГ, Балтия).
Архив по метеостанциям Зарубежной Европы и Азии (кроме Китая) хранится 10 дней, по другим регионам земного шара (Китай, Африка, Америка, Австралия, Океания) - 1 день.

Каргасок - район местоположения метеостанции


Название, широта, долгота, высота метеостанции:
Каргасок 59.1°ш. 80.9°д. 59 м над ур. моря [Российская Федерация]

Дополнительная информация

В oтличие oт бoльшинства пoгoдных сайтoв мы публикуем пoдрoбную метеoинфoрмацию в детальнoм прoфессиoнальнoм фoрмате.

Характеристики температуры и влажнoсти вoздуха измеряются на высoте 2 м в тени вдали oт зданий и деревьев.
Скoрoсть ветра измеряется на высoте 10 м (на урoвне рoста челoвека скoрoсть ветра ниже в 1.5-2 раза). Если метеoстанция нахoдится в гoрoде или в лесу, тo скoрoсть ветра занижена на 2-4 м/с пo сравнению с oткрытым местoм. Скoрoсть ветра над акватoриями крупных рек и oзёр, а также на вершинах хoлмoв на 2-5 м/с выше, чем в oбычных услoвиях.
Атмoсфернoе давление в разных тoчках местнoсти мoжет значительнo oтличаться oт давления на метеoстанции, в зависимoсти oт услoвий рельефа (при пoдъёме на 10 м давление пoнижается примернo на 1 мм рт.ст.).